sat.trackr.live / text

‹ back to catalog

STARLINK-32239

NORAD 61892 · 2024-204U

PAYLOAD ACTIVE UNKNOWN

§ Identity

Operator
Country
US
Launch date
2024-11-09
Launch site
AFWTR
Launch vehicle
Mass (kg)
RCS (m²)

Purposes: comms

External: N2YO · Heavens-Above · Gunter

§ Orbital elements

Epoch: 2026-05-25T02:38:46.140000Z

Period
94.11 min
Inclination
53.1594°
Eccentricity
0.0001220
Mean motion
15.30195323 rev/d
Perigee alt
474.4 km
Apogee alt
476.1 km
Semi-major
6,853.4 km
B*
4.3594e-5
RAAN
132.4136°
Arg perigee
79.7488°
Mean anomaly
280.3651°
Rev number
8,679

§ Raw data

STARLINK-322391 61892U 24204U   26145.11025625  .00000932  00000+0  43594-4 0  99902 61892  53.1594 132.4136 0001220  79.7488 280.3651 15.30195323 86790

JSON: /api/v1/satellites/61892 · /tle

For live sub-satellite position, see the globe view (requires WebGL).

§ Visibility from observer

Set your observer location to see the next 7 days of passes ≥ 10°. The values pass through the URL so the page stays shareable.

No JS? Fill the form by hand. The geolocation button needs JavaScript.